This is the latest recevied weather packets stored in our database for station/object W4DHW-4. If no packets are shown the sender has not sent any weather packets the latest 10 day(s).
| Time | Temp. | Humidity | Pressure | Rain* | Wind** | Luminosity | Snow |
|---|---|---|---|---|---|---|---|
| 1778189317 | 16.67° C | 74% | 1009.8 hPa | 0 mm | - | 394 W/m² | - |
| 1778189013 | 16.11° C | 75% | 1009.8 hPa | 0 mm | - | 392 W/m² | - |
| 1778188710 | 16.11° C | 74% | 1009.8 hPa | 0 mm | - | 430 W/m² | - |
| 1778188407 | 16.11° C | 74% | 1009.6 hPa | 0 mm | - | 460 W/m² | - |
| 1778188104 | 15.56° C | 75% | 1009.6 hPa | 0 mm | - | 149 W/m² | - |
| 1778187801 | 15.56° C | 75% | 1009.7 hPa | 0 mm | - | 321 W/m² | - |
| 1778187497 | 15.56° C | 75% | 1009.6 hPa | 0 mm | - | 138 W/m² | - |
| 1778187194 | 15.56° C | 76% | 1009.7 hPa | 0 mm | - | 118 W/m² | - |
| 1778186890 | 15.56° C | 77% | 1009.6 hPa | 0 mm | - | 147 W/m² | - |
| 1778186588 | 15.56° C | 78% | 1009.5 hPa | 0 mm | - | 147 W/m² | - |
| 1778186286 | 16.11° C | 77% | 1009.6 hPa | 0 mm | - | 164 W/m² | - |
| 1778185983 | 16.11° C | 77% | 1009.7 hPa | 0 mm | - | 231 W/m² | - |
| 1778185679 | 16.11° C | 77% | 1009.9 hPa | 0 mm | - | 200 W/m² | - |
| 1778185375 | 15.56° C | 79% | 1009.8 hPa | 0 mm | - | 159 W/m² | - |
| 1778185070 | 15.56° C | 79% | 1010.2 hPa | 0 mm | - | 263 W/m² | - |
| 1778184767 | 15.56° C | 78% | 1010.1 hPa | 0 mm | - | 309 W/m² | - |
| 1778184463 | 15.56° C | 80% | 1010.1 hPa | 0 mm | - | 309 W/m² | - |
| 1778184159 | 15° C | 80% | 1010 hPa | 0 mm | - | 297 W/m² | - |
| 1778183856 | 15° C | 81% | 1010.2 hPa | 0 mm | - | 354 W/m² | - |
| 1778183553 | 15° C | 82% | 1010.4 hPa | 0 mm | - | 277 W/m² | - |
| 1778183250 | 15° C | 82% | 1010.4 hPa | 0 mm | - | 278 W/m² | - |
| 1778182946 | 15° C | 83% | 1010.3 hPa | 0 mm | - | 401 W/m² | - |
| 1778182643 | 15° C | 83% | 1010.8 hPa | 0 mm | - | 326 W/m² | - |
| 1778182340 | 15° C | 84% | 1010.8 hPa | 0 mm | - | 370 W/m² | - |
| 1778182036 | 14.44° C | 84% | 1010.6 hPa | 0 mm | - | 296 W/m² | - |
* Rain latest hour (hover to see other rain measurements)
** Current wind speed in m/s (hover to see current wind gust speed)